Private Wetterstation Wechselburg
Wetterdaten: Samstag, 10.07.2021
Datum Zeit Temp. +2m Bodentemp. Temp.+5cm Temp. Wind Windchill X Diff Temp. Feuchte +2m Feuchte +5cm Luftdruck Regen Wind Richtung Richtung Sonnenschein Taupunkt Windchill Windben
10.07.2021 00:00 12,5 C 19,7 C 13,4 C 13,4 C 13,4 C 0,9 C 89 % 91 % 1018,0 hPa 0,0 l/m 0,5 km/h (0 Bft) S 180 0 min 10,7 C 13,4 C 2,1 km/h (1 Bft)
10.07.2021 00:05 12,5 C 19,7 C 13,4 C 13,4 C 13,4 C 0,9 C 89 % 91 % 1018,0 hPa 0,0 l/m 0,2 km/h (0 Bft) W-SW 247 0 min 10,7 C 13,4 C 0,0 km/h (0 Bft)
10.07.2021 00:10 12,5 C 19,7 C 13,5 C 13,4 C 13,4 C 0,9 C 89 % 91 % 1018,0 hPa 0,0 l/m 0,2 km/h (0 Bft) S-SW 202 0 min 10,7 C 13,4 C 0,0 km/h (0 Bft)
10.07.2021 00:15 12,5 C 19,7 C 13,4 C 13,4 C 13,4 C 0,9 C 89 % 91 % 1018,1 hPa 0,0 l/m 0,0 km/h (0 Bft) W-SW 247 0 min 10,7 C 13,4 C 0,0 km/h (0 Bft)
10.07.2021 00:20 12,5 C 19,7 C 13,4 C 13,4 C 13,4 C 0,9 C 89 % 91 % 1018,1 hPa 0,0 l/m 0,2 km/h (0 Bft) SW 225 0 min 10,7 C 13,4 C 0,0 km/h (0 Bft)
10.07.2021 00:25 12,5 C 19,7 C 13,4 C 13,5 C 13,5 C 1,0 C 89 % 91 % 1018,1 hPa 0,0 l/m 0,2 km/h (0 Bft) S-SW 202 0 min 10,7 C 13,5 C 0,0 km/h (0 Bft)
10.07.2021 00:30 12,5 C 19,6 C 13,5 C 13,5 C 13,5 C 1,0 C 89 % 91 % 1018,1 hPa 0,0 l/m 0,2 km/h (0 Bft) S-SW 202 0 min 10,7 C 13,5 C 0,0 km/h (0 Bft)
10.07.2021 00:35 12,5 C 19,6 C 13,4 C 13,5 C 13,5 C 1,0 C 89 % 91 % 1018,0 hPa 0,0 l/m 0,2 km/h (0 Bft) SW 225 0 min 10,7 C 13,5 C 0,0 km/h (0 Bft)
10.07.2021 00:40 12,5 C 19,6 C 13,5 C 13,6 C 13,6 C 1,1 C 89 % 91 % 1018,0 hPa 0,0 l/m 0,5 km/h (0 Bft) W-SW 247 0 min 10,7 C 13,6 C 0,0 km/h (0 Bft)
10.07.2021 00:45 12,5 C 19,6 C 13,5 C 13,6 C 13,6 C 1,1 C 89 % 91 % 1018,0 hPa 0,0 l/m 0,3 km/h (0 Bft) SW 225 0 min 10,7 C 13,6 C 0,0 km/h (0 Bft)
10.07.2021 00:50 12,5 C 19,6 C 13,5 C 13,6 C 13,6 C 1,1 C 89 % 91 % 1018,0 hPa 0,0 l/m 0,2 km/h (0 Bft) S-SW 202 0 min 10,7 C 13,6 C 1,6 km/h (1 Bft)
10.07.2021 00:55 12,6 C 19,6 C 13,5 C 13,6 C 13,6 C 1,0 C 89 % 91 % 1018,6 hPa 0,0 l/m 0,2 km/h (0 Bft) NW 315 0 min 10,8 C 13,6 C 0,0 km/h (0 Bft)
10.07.2021 01:00 12,6 C 19,6 C 13,5 C 13,6 C 13,6 C 1,0 C 89 % 91 % 1018,6 hPa 0,0 l/m 0,2 km/h (0 Bft) NO 45 0 min 10,8 C 13,6 C 1,8 km/h (1 Bft)
10.07.2021 01:05 12,7 C 19,6 C 13,4 C 13,5 C 13,5 C 0,8 C 89 % 91 % 1018,6 hPa 0,0 l/m 0,2 km/h (0 Bft) SW 225 0 min 10,9 C 13,5 C 0,0 km/h (0 Bft)
10.07.2021 01:10 12,6 C 19,6 C 13,4 C 13,4 C 13,4 C 0,8 C 89 % 91 % 1018,6 hPa 0,0 l/m 0,2 km/h (0 Bft) SW 225 0 min 10,8 C 13,4 C 0,0 km/h (0 Bft)
10.07.2021 01:15 12,5 C 19,6 C 13,5 C 13,4 C 13,4 C 0,9 C 89 % 91 % 1017,9 hPa 0,0 l/m 0,0 km/h (0 Bft) SW 225 0 min 10,7 C 13,4 C 0,0 km/h (0 Bft)
10.07.2021 01:20 12,6 C 19,6 C 13,5 C 13,4 C 13,4 C 0,8 C 89 % 91 % 1017,9 hPa 0,0 l/m 0,2 km/h (0 Bft) S-SW 202 0 min 10,8 C 13,4 C 0,0 km/h (0 Bft)
10.07.2021 01:25 12,5 C 19,6 C 13,5 C 13,4 C 13,4 C 0,9 C 89 % 91 % 1017,9 hPa 0,0 l/m 0,2 km/h (0 Bft) S 180 0 min 10,7 C 13,4 C 1,6 km/h (1 Bft)
10.07.2021 01:30 12,5 C 19,6 C 13,5 C 13,4 C 13,4 C 0,9 C 89 % 91 % 1017,9 hPa 0,0 l/m 0,2 km/h (0 Bft) SW 225 0 min 10,7 C 13,4 C 0,0 km/h (0 Bft)
10.07.2021 01:35 12,5 C 19,6 C 13,5 C 13,4 C 13,4 C 0,9 C 89 % 91 % 1018,0 hPa 0,0 l/m 0,0 km/h (0 Bft) S-SO 157 0 min 10,7 C 13,4 C 0,0 km/h (0 Bft)
10.07.2021 01:40 12,6 C 19,6 C 13,5 C 13,5 C 13,5 C 0,9 C 89 % 91 % 1018,0 hPa 0,7 l/m 0,2 km/h (0 Bft) SW 225 0 min 10,8 C 13,5 C 0,0 km/h (0 Bft)
10.07.2021 01:45 12,6 C 19,6 C 13,5 C 13,5 C 13,5 C 0,9 C 89 % 91 % 1018,0 hPa 0,0 l/m 0,2 km/h (0 Bft) SW 225 0 min 10,8 C 13,5 C 3,4 km/h (1 Bft)
10.07.2021 01:50 12,6 C 19,6 C 13,5 C 13,5 C 13,5 C 0,9 C 89 % 91 % 1018,0 hPa 0,0 l/m 0,0 km/h (0 Bft) SO 135 0 min 10,8 C 13,5 C 0,0 km/h (0 Bft)
10.07.2021 01:55 12,7 C 19,6 C 13,5 C 13,5 C 13,5 C 0,8 C 89 % 91 % 1017,9 hPa 0,0 l/m 0,2 km/h (0 Bft) SW 225 0 min 10,9 C 13,5 C 4,8 km/h (1 Bft)
10.07.2021 02:00 12,7 C 19,6 C 13,5 C 13,6 C 13,6 C 0,9 C 89 % 91 % 1017,9 hPa 0,0 l/m 0,2 km/h (0 Bft) W-SW 247 0 min 10,9 C 13,6 C 0,0 km/h (0 Bft)
10.07.2021 02:05 12,7 C 19,5 C 13,5 C 13,6 C 13,6 C 0,9 C 89 % 91 % 1017,9 hPa 0,0 l/m 0,5 km/h (0 Bft) S-SO 157 0 min 10,9 C 13,6 C 0,0 km/h (0 Bft)
10.07.2021 02:10 12,6 C 19,5 C 13,5 C 13,6 C 13,6 C 1,0 C 89 % 91 % 1017,9 hPa 0,0 l/m 0,3 km/h (0 Bft) SW 225 0 min 10,8 C 13,6 C 0,0 km/h (0 Bft)
10.07.2021 02:15 12,6 C 19,5 C 13,5 C 13,7 C 13,7 C 1,1 C 89 % 91 % 1017,8 hPa 0,0 l/m 0,0 km/h (0 Bft) W-SW 247 0 min 10,8 C 13,7 C 0,0 km/h (0 Bft)
10.07.2021 02:20 12,7 C 19,5 C 13,5 C 13,7 C 13,7 C 1,0 C 89 % 91 % 1017,8 hPa 0,0 l/m 0,3 km/h (0 Bft) S 180 0 min 10,9 C 13,7 C 0,0 km/h (0 Bft)
10.07.2021 02:25 12,7 C 19,5 C 13,6 C 13,7 C 13,7 C 1,0 C 89 % 91 % 1017,8 hPa 0,0 l/m 0,3 km/h (0 Bft) SW 225 0 min 10,9 C 13,7 C 0,0 km/h (0 Bft)
10.07.2021 02:30 12,7 C 19,5 C 13,5 C 13,7 C 13,7 C 1,0 C 89 % 91 % 1017,8 hPa 0,0 l/m 0,3 km/h (0 Bft) W 270 0 min 10,9 C 13,7 C 1,8 km/h (1 Bft)
10.07.2021 02:35 12,6 C 19,5 C 13,5 C 13,6 C 13,6 C 1,0 C 89 % 91 % 1017,6 hPa 0,7 l/m 0,3 km/h (0 Bft) N 360 0 min 10,8 C 13,6 C 0,0 km/h (0 Bft)
10.07.2021 02:40 12,7 C 19,5 C 13,5 C 13,6 C 13,6 C 0,9 C 89 % 91 % 1017,6 hPa 0,0 l/m 0,5 km/h (0 Bft) N-NO 22 0 min 10,9 C 13,6 C 0,0 km/h (0 Bft)
10.07.2021 02:45 12,7 C 19,5 C 13,5 C 13,6 C 13,6 C 0,9 C 89 % 91 % 1017,6 hPa 0,0 l/m 0,5 km/h (0 Bft) W 270 0 min 10,9 C 13,6 C 0,0 km/h (0 Bft)
10.07.2021 02:50 12,7 C 19,5 C 13,4 C 13,5 C 13,5 C 0,8 C 89 % 91 % 1017,6 hPa 0,0 l/m 0,3 km/h (0 Bft) S 180 0 min 10,9 C 13,5 C 0,0 km/h (0 Bft)
10.07.2021 02:55 12,7 C 19,5 C 13,5 C 13,5 C 13,5 C 0,8 C 89 % 91 % 1017,2 hPa 0,0 l/m 0,2 km/h (0 Bft) SW 225 0 min 10,9 C 13,5 C 0,0 km/h (0 Bft)
10.07.2021 03:00 12,6 C 19,5 C 13,5 C 13,5 C 13,5 C 0,9 C 89 % 91 % 1017,2 hPa 0,0 l/m 0,0 km/h (0 Bft) SW 225 0 min 10,8 C 13,5 C 0,0 km/h (0 Bft)
10.07.2021 03:05 12,5 C 19,5 C 13,4 C 13,5 C 13,5 C 1,0 C 89 % 91 % 1017,2 hPa 0,0 l/m 0,2 km/h (0 Bft) W-SW 247 0 min 10,7 C 13,5 C 0,0 km/h (0 Bft)
10.07.2021 03:10 12,5 C 19,5 C 13,4 C 13,5 C 13,5 C 1,0 C 89 % 91 % 1017,2 hPa 0,0 l/m 0,3 km/h (0 Bft) O-SO 112 0 min 10,7 C 13,5 C 0,0 km/h (0 Bft)
10.07.2021 03:15 12,6 C 19,5 C 13,4 C 13,5 C 13,5 C 0,9 C 89 % 91 % 1017,4 hPa 0,0 l/m 0,2 km/h (0 Bft) S 180 0 min 10,8 C 13,5 C 0,0 km/h (0 Bft)
10.07.2021 03:20 12,6 C 19,5 C 13,4 C 13,6 C 13,6 C 1,0 C 89 % 91 % 1017,4 hPa 0,0 l/m 0,0 km/h (0 Bft) S-SW 202 0 min 10,8 C 13,6 C 0,0 km/h (0 Bft)
10.07.2021 03:25 12,6 C 19,5 C 13,4 C 13,6 C 13,6 C 1,0 C 89 % 91 % 1017,4 hPa 0,0 l/m 0,2 km/h (0 Bft) W 270 0 min 10,8 C 13,6 C 0,0 km/h (0 Bft)
10.07.2021 03:30 12,7 C 19,5 C 13,4 C 13,6 C 13,6 C 0,9 C 89 % 91 % 1017,4 hPa 0,0 l/m 0,3 km/h (0 Bft) S-SW 202 0 min 10,9 C 13,6 C 0,0 km/h (0 Bft)
10.07.2021 03:35 12,7 C 19,5 C 13,4 C 13,6 C 13,6 C 0,9 C 89 % 91 % 1017,4 hPa 0,0 l/m 0,5 km/h (0 Bft) S-SO 157 0 min 10,9 C 13,6 C 7,4 km/h (2 Bft)
10.07.2021 03:40 12,7 C 19,5 C 13,5 C 13,6 C 13,6 C 0,9 C 89 % 91 % 1017,4 hPa 0,0 l/m 0,3 km/h (0 Bft) W-SW 247 0 min 10,9 C 13,6 C 0,0 km/h (0 Bft)
10.07.2021 03:45 12,7 C 19,5 C 13,5 C 13,6 C 13,6 C 0,9 C 89 % 91 % 1017,4 hPa 0,0 l/m 0,0 km/h (0 Bft) O 90 0 min 10,9 C 13,6 C 0,0 km/h (0 Bft)
10.07.2021 03:50 12,7 C 19,5 C 13,5 C 13,6 C 13,6 C 0,9 C 89 % 91 % 1017,4 hPa 0,0 l/m 0,0 km/h (0 Bft) O 90 0 min 10,9 C 13,6 C 0,0 km/h (0 Bft)
10.07.2021 03:55 12,6 C 19,5 C 13,5 C 13,6 C 13,6 C 1,0 C 89 % 91 % 1018,3 hPa 0,0 l/m 0,0 km/h (0 Bft) O 90 0 min 10,8 C 13,6 C 0,0 km/h (0 Bft)
10.07.2021 04:00 12,6 C 19,5 C 13,5 C 13,6 C 13,6 C 1,0 C 89 % 91 % 1018,3 hPa 0,0 l/m 0,0 km/h (0 Bft) SO 135 0 min 10,8 C 13,6 C 0,0 km/h (0 Bft)
10.07.2021 04:05 12,7 C 19,5 C 13,5 C 13,5 C 13,5 C 0,8 C 89 % 91 % 1018,3 hPa 0,0 l/m 0,2 km/h (0 Bft) O-SO 112 0 min 10,9 C 13,5 C 0,0 km/h (0 Bft)
10.07.2021 04:10 12,7 C 19,5 C 13,4 C 13,4 C 13,4 C 0,7 C 89 % 92 % 1018,3 hPa 0,0 l/m 0,0 km/h (0 Bft) S-SW 202 0 min 10,9 C 13,4 C 0,0 km/h (0 Bft)
10.07.2021 04:15 12,5 C 19,4 C 13,3 C 13,3 C 13,3 C 0,8 C 89 % 92 % 1017,6 hPa 0,0 l/m 0,2 km/h (0 Bft) NW 315 0 min 10,7 C 13,3 C 2,3 km/h (1 Bft)
10.07.2021 04:20 12,5 C 19,4 C 13,2 C 13,2 C 13,2 C 0,7 C 89 % 92 % 1017,6 hPa 0,0 l/m 0,2 km/h (0 Bft) S 180 0 min 10,7 C 13,2 C 0,0 km/h (0 Bft)
10.07.2021 04:25 12,4 C 19,4 C 13,2 C 13,2 C 13,2 C 0,8 C 89 % 92 % 1017,6 hPa 0,0 l/m 0,3 km/h (0 Bft) S 180 0 min 10,6 C 13,2 C 0,0 km/h (0 Bft)
10.07.2021 04:30 12,4 C 19,4 C 13,2 C 13,2 C 13,2 C 0,8 C 89 % 92 % 1017,6 hPa 0,0 l/m 0,3 km/h (0 Bft) SO 135 0 min 10,6 C 13,2 C 2,1 km/h (1 Bft)
10.07.2021 04:35 12,4 C 19,5 C 13,2 C 13,0 C 13,0 C 0,6 C 89 % 92 % 1017,6 hPa 0,0 l/m 0,2 km/h (0 Bft) SW 225 0 min 10,6 C 13,0 C 0,0 km/h (0 Bft)
10.07.2021 04:40 12,4 C 19,4 C 13,2 C 12,9 C 12,9 C 0,5 C 89 % 92 % 1017,6 hPa 0,0 l/m 0,2 km/h (0 Bft) S-SW 202 0 min 10,6 C 12,9 C 0,0 km/h (0 Bft)
10.07.2021 04:45 12,2 C 19,4 C 13,1 C 12,8 C 12,8 C 0,6 C 89 % 92 % 1017,6 hPa 0,0 l/m 0,0 km/h (0 Bft) O-NO 67 0 min 10,4 C 12,8 C 0,0 km/h (0 Bft)
10.07.2021 04:50 12,3 C 19,4 C 13,0 C 12,8 C 12,8 C 0,5 C 89 % 92 % 1017,6 hPa 0,0 l/m 0,0 km/h (0 Bft) S-SO 157 0 min 10,5 C 12,8 C 0,0 km/h (0 Bft)
10.07.2021 04:55 12,1 C 19,4 C 13,0 C 12,7 C 12,7 C 0,6 C 89 % 92 % 1018,1 hPa 0,0 l/m 0,0 km/h (0 Bft) O 90 0 min 10,3 C 12,7 C 0,0 km/h (0 Bft)
10.07.2021 05:00 12,1 C 19,4 C 13,1 C 12,8 C 12,8 C 0,7 C 89 % 92 % 1018,1 hPa 0,0 l/m 0,0 km/h (0 Bft) O-NO 67 0 min 10,3 C 12,8 C 0,0 km/h (0 Bft)
10.07.2021 05:05 12,1 C 19,4 C 13,1 C 13,0 C 13,0 C 0,9 C 89 % 92 % 1018,1 hPa 0,0 l/m 0,2 km/h (0 Bft) W-SW 247 0 min 10,3 C 13,0 C 0,0 km/h (0 Bft)
10.07.2021 05:10 12,1 C 19,4 C 13,1 C 13,0 C 13,0 C 0,9 C 89 % 92 % 1018,1 hPa 0,0 l/m 0,2 km/h (0 Bft) SO 135 0 min 10,3 C 13,0 C 0,0 km/h (0 Bft)
10.07.2021 05:15 12,2 C 19,4 C 13,1 C 13,1 C 13,1 C 0,9 C 89 % 92 % 1017,4 hPa 0,0 l/m 0,2 km/h (0 Bft) N 360 0 min 10,4 C 13,1 C 0,0 km/h (0 Bft)
10.07.2021 05:20 12,3 C 19,4 C 13,1 C 13,2 C 13,2 C 0,9 C 89 % 92 % 1017,4 hPa 0,0 l/m 0,0 km/h (0 Bft) O-SO 112 5 min 10,5 C 13,2 C 0,0 km/h (0 Bft)
10.07.2021 05:25 12,2 C 19,4 C 13,2 C 13,3 C 13,3 C 1,1 C 89 % 92 % 1017,4 hPa 0,0 l/m 0,2 km/h (0 Bft) W 270 5 min 10,4 C 13,3 C 1,6 km/h (1 Bft)
10.07.2021 05:30 12,3 C 19,4 C 13,2 C 13,4 C 13,4 C 1,1 C 89 % 92 % 1017,4 hPa 0,0 l/m 0,2 km/h (0 Bft) S-SO 157 5 min 10,5 C 13,4 C 0,0 km/h (0 Bft)
10.07.2021 05:35 12,3 C 19,4 C 13,3 C 13,4 C 13,4 C 1,1 C 89 % 92 % 1017,6 hPa 0,0 l/m 0,3 km/h (0 Bft) SW 225 5 min 10,5 C 13,4 C 2,7 km/h (1 Bft)
10.07.2021 05:40 12,4 C 19,4 C 13,3 C 13,4 C 13,4 C 1,0 C 89 % 92 % 1017,6 hPa 0,0 l/m 0,2 km/h (0 Bft) W 270 5 min 10,6 C 13,4 C 0,0 km/h (0 Bft)
10.07.2021 05:45 12,4 C 19,4 C 13,3 C 13,4 C 13,4 C 1,0 C 89 % 92 % 1017,6 hPa 0,0 l/m 0,2 km/h (0 Bft) SO 135 5 min 10,6 C 13,4 C 0,0 km/h (0 Bft)
10.07.2021 05:50 12,4 C 19,4 C 13,3 C 13,4 C 13,4 C 1,0 C 89 % 92 % 1017,6 hPa 0,0 l/m 0,0 km/h (0 Bft) W 270 5 min 10,6 C 13,4 C 0,0 km/h (0 Bft)
10.07.2021 05:55 12,4 C 19,4 C 13,3 C 13,3 C 13,3 C 0,9 C 89 % 92 % 1017,6 hPa 0,0 l/m 0,0 km/h (0 Bft) O-NO 67 0 min 10,6 C 13,3 C 0,0 km/h (0 Bft)
10.07.2021 06:00 12,5 C 19,4 C 13,3 C 13,4 C 13,4 C 0,9 C 89 % 92 % 1017,6 hPa 0,0 l/m 0,0 km/h (0 Bft) W-SW 247 0 min 10,7 C 13,4 C 0,0 km/h (0 Bft)
10.07.2021 06:05 12,4 C 19,4 C 13,3 C 13,4 C 13,4 C 1,0 C 89 % 92 % 1017,6 hPa 0,0 l/m 0,0 km/h (0 Bft) O-SO 112 0 min 10,6 C 13,4 C 0,0 km/h (0 Bft)
10.07.2021 06:10 12,4 C 19,4 C 13,4 C 13,4 C 13,4 C 1,0 C 89 % 92 % 1017,6 hPa 0,0 l/m 0,0 km/h (0 Bft) O 90 0 min 10,6 C 13,4 C 0,0 km/h (0 Bft)
10.07.2021 06:15 12,5 C 19,4 C 13,3 C 13,5 C 13,5 C 1,0 C 89 % 92 % 1017,6 hPa 0,0 l/m 0,0 km/h (0 Bft) O-NO 67 0 min 10,7 C 13,5 C 0,0 km/h (0 Bft)
10.07.2021 06:20 12,6 C 19,4 C 13,4 C 13,6 C 13,6 C 1,0 C 89 % 92 % 1017,6 hPa 0,0 l/m 0,0 km/h (0 Bft) O-NO 67 0 min 10,8 C 13,6 C 0,0 km/h (0 Bft)
10.07.2021 06:25 12,7 C 19,4 C 13,4 C 13,6 C 13,6 C 0,9 C 89 % 92 % 1017,6 hPa 0,0 l/m 0,0 km/h (0 Bft) SO 135 0 min 10,9 C 13,6 C 0,0 km/h (0 Bft)
10.07.2021 06:30 12,7 C 19,5 C 13,4 C 13,6 C 13,6 C 0,9 C 89 % 92 % 1017,6 hPa 0,0 l/m 0,0 km/h (0 Bft) O 90 0 min 10,9 C 13,6 C 0,0 km/h (0 Bft)
10.07.2021 06:35 12,7 C 19,5 C 13,5 C 13,6 C 13,6 C 0,9 C 89 % 92 % 1017,5 hPa 0,0 l/m 0,0 km/h (0 Bft) SW 225 0 min 10,9 C 13,6 C 0,0 km/h (0 Bft)
10.07.2021 06:40 12,7 C 19,5 C 13,5 C 13,8 C 13,8 C 1,1 C 89 % 92 % 1017,5 hPa 0,0 l/m 0,0 km/h (0 Bft) O-NO 67 0 min 10,9 C 13,8 C 0,0 km/h (0 Bft)
10.07.2021 06:45 12,8 C 19,5 C 13,6 C 13,9 C 13,9 C 1,1 C 89 % 92 % 1017,5 hPa 0,0 l/m 0,0 km/h (0 Bft) O-NO 67 0 min 11,0 C 13,9 C 0,0 km/h (0 Bft)
10.07.2021 06:50 12,8 C 19,5 C 13,6 C 14,0 C 14,0 C 1,2 C 89 % 91 % 1017,5 hPa 0,0 l/m 0,0 km/h (0 Bft) O-NO 67 0 min 11,0 C 14,0 C 0,0 km/h (0 Bft)
10.07.2021 06:55 12,8 C 19,5 C 13,7 C 14,0 C 14,0 C 1,2 C 89 % 91 % 1017,7 hPa 0,0 l/m 0,0 km/h (0 Bft) S-SO 157 0 min 11,0 C 14,0 C 0,0 km/h (0 Bft)
10.07.2021 07:00 12,8 C 19,5 C 13,8 C 14,1 C 14,1 C 1,3 C 89 % 92 % 1017,7 hPa 0,0 l/m 0,0 km/h (0 Bft) N-NW 337 0 min 11,0 C 14,1 C 0,0 km/h (0 Bft)
10.07.2021 07:05 12,8 C 19,5 C 13,8 C 14,2 C 14,2 C 1,4 C 89 % 92 % 1017,7 hPa 0,0 l/m 0,0 km/h (0 Bft) SW 225 0 min 11,0 C 14,2 C 0,0 km/h (0 Bft)
10.07.2021 07:10 12,9 C 19,5 C 13,9 C 15,5 C 15,5 C 2,6 C 89 % 92 % 1017,7 hPa 0,0 l/m 0,0 km/h (0 Bft) SW 225 0 min 11,1 C 15,5 C 0,0 km/h (0 Bft)
10.07.2021 07:15 12,9 C 19,5 C 13,8 C 15,5 C 15,5 C 2,6 C 89 % 92 % 1017,9 hPa 0,0 l/m 0,0 km/h (0 Bft) S-SO 157 0 min 11,1 C 15,5 C 0,0 km/h (0 Bft)
10.07.2021 07:20 13,0 C 19,5 C 13,8 C 15,1 C 15,1 C 2,1 C 89 % 92 % 1017,9 hPa 0,0 l/m 0,0 km/h (0 Bft) SW 225 0 min 11,2 C 15,1 C 0,0 km/h (0 Bft)
10.07.2021 07:25 13,1 C 19,5 C 13,7 C 15,0 C 15,0 C 1,9 C 90 % 92 % 1017,9 hPa 0,0 l/m 0,0 km/h (0 Bft) S-SW 202 0 min 11,5 C 15,0 C 0,0 km/h (0 Bft)
10.07.2021 07:30 13,1 C 19,5 C 13,9 C 16,2 C 16,2 C 3,1 C 90 % 92 % 1017,9 hPa 0,0 l/m 0,0 km/h (0 Bft) NO 45 0 min 11,5 C 16,2 C 0,0 km/h (0 Bft)
10.07.2021 07:35 13,5 C 19,5 C 14,2 C 19,3 C 19,3 C 5,8 C 90 % 92 % 1017,9 hPa 0,0 l/m 0,0 km/h (0 Bft) SW 225 5 min 11,9 C 19,3 C 0,0 km/h (0 Bft)
10.07.2021 07:40 13,9 C 19,5 C 14,3 C 20,9 C 20,9 C 7,0 C 90 % 92 % 1017,9 hPa 0,0 l/m 0,0 km/h (0 Bft) SW 225 5 min 12,3 C 20,9 C 1,6 km/h (1 Bft)
10.07.2021 07:45 14,1 C 19,5 C 14,3 C 22,4 C 22,4 C 8,3 C 90 % 92 % 1017,9 hPa 0,0 l/m 0,0 km/h (0 Bft) O 90 5 min 12,5 C 22,4 C 0,0 km/h (0 Bft)
10.07.2021 07:50 14,3 C 19,5 C 14,4 C 23,4 C 23,4 C 9,1 C 90 % 92 % 1017,9 hPa 0,0 l/m 0,2 km/h (0 Bft) S 180 5 min 12,7 C 23,4 C 1,6 km/h (1 Bft)
10.07.2021 07:55 14,5 C 19,5 C 14,5 C 24,8 C 24,8 C 10,3 C 90 % 92 % 1017,4 hPa 0,0 l/m 0,0 km/h (0 Bft) SW 225 5 min 12,9 C 24,8 C 0,0 km/h (0 Bft)
10.07.2021 08:00 14,7 C 19,6 C 14,6 C 25,4 C 25,4 C 10,7 C 90 % 92 % 1017,4 hPa 0,0 l/m 0,0 km/h (0 Bft) S-SO 157 5 min 13,1 C 25,4 C 0,0 km/h (0 Bft)
10.07.2021 08:05 14,7 C 19,5 C 14,7 C 25,6 C 25,6 C 10,9 C 90 % 92 % 1017,4 hPa 0,0 l/m 0,5 km/h (0 Bft) S-SW 202 5 min 13,1 C 25,6 C 2,3 km/h (1 Bft)
10.07.2021 08:10 14,8 C 19,4 C 14,8 C 25,6 C 25,6 C 10,8 C 90 % 92 % 1017,4 hPa 0,0 l/m 0,6 km/h (0 Bft) W-SW 247 5 min 13,2 C 25,6 C 0,0 km/h (0 Bft)
10.07.2021 08:15 14,7 C 19,4 C 14,9 C 25,6 C 25,6 C 10,9 C 90 % 92 % 1018,2 hPa 0,0 l/m 0,8 km/h (0 Bft) S-SO 157 5 min 13,1 C 25,6 C 0,0 km/h (0 Bft)
10.07.2021 08:20 14,7 C 19,4 C 14,9 C 25,5 C 25,5 C 10,8 C 90 % 92 % 1018,2 hPa 0,0 l/m 1,0 km/h (0 Bft) SW 225 5 min 13,1 C 25,5 C 2,6 km/h (1 Bft)
10.07.2021 08:25 14,7 C 19,4 C 15,0 C 25,4 C 25,4 C 10,7 C 90 % 92 % 1018,2 hPa 0,0 l/m 1,1 km/h (1 Bft) W-SW 247 5 min 13,1 C 25,4 C 1,9 km/h (1 Bft)
10.07.2021 08:30 14,7 C 19,3 C 15,0 C 25,4 C 25,4 C 10,7 C 90 % 92 % 1018,2 hPa 0,0 l/m 1,6 km/h (1 Bft) SO 135 5 min 13,1 C 25,4 C 5,0 km/h (1 Bft)
10.07.2021 08:35 14,9 C 19,4 C 15,0 C 25,4 C 25,4 C 10,5 C 90 % 92 % 1018,5 hPa 0,0 l/m 1,4 km/h (1 Bft) W-SW 247 5 min 13,3 C 25,4 C 0,0 km/h (0 Bft)
10.07.2021 08:40 14,9 C 19,4 C 15,1 C 25,5 C 25,5 C 10,6 C 90 % 92 % 1018,5 hPa 0,0 l/m 1,1 km/h (1 Bft) O-SO 112 5 min 13,3 C 25,5 C 0,0 km/h (0 Bft)
10.07.2021 08:45 15,1 C 19,4 C 15,2 C 25,7 C 25,7 C 10,6 C 90 % 92 % 1018,5 hPa 0,0 l/m 1,1 km/h (1 Bft) SW 225 5 min 13,5 C 25,7 C 9,3 km/h (2 Bft)
10.07.2021 08:50 15,3 C 19,4 C 15,3 C 25,9 C 25,9 C 10,6 C 90 % 92 % 1018,5 hPa 0,0 l/m 1,1 km/h (1 Bft) W-SW 247 5 min 13,7 C 25,9 C 0,0 km/h (0 Bft)
10.07.2021 08:55 15,5 C 19,4 C 15,4 C 26,1 C 26,1 C 10,6 C 90 % 92 % 1018,4 hPa 0,0 l/m 0,6 km/h (0 Bft) W-SW 247 5 min 13,9 C 26,1 C 0,0 km/h (0 Bft)
10.07.2021 09:00 15,7 C 19,4 C 15,5 C 26,7 C 26,7 C 11,0 C 90 % 92 % 1018,4 hPa 0,0 l/m 0,5 km/h (0 Bft) SW 225 5 min 14,1 C 26,7 C 2,4 km/h (1 Bft)
10.07.2021 09:05 15,8 C 19,4 C 15,5 C 26,8 C 26,8 C 11,0 C 90 % 92 % 1018,4 hPa 0,0 l/m 0,8 km/h (0 Bft) S-SO 157 5 min 14,2 C 26,8 C 0,0 km/h (0 Bft)
10.07.2021 09:10 16,0 C 19,3 C 15,7 C 27,0 C 27,0 C 11,0 C 90 % 92 % 1018,4 hPa 0,0 l/m 0,8 km/h (0 Bft) SW 225 5 min 14,4 C 27,0 C 2,1 km/h (1 Bft)
10.07.2021 09:15 16,2 C 19,3 C 15,8 C 26,8 C 26,8 C 10,6 C 90 % 92 % 1017,9 hPa 0,0 l/m 0,6 km/h (0 Bft) W-SW 247 5 min 14,6 C 26,8 C 0,0 km/h (0 Bft)
10.07.2021 09:20 16,3 C 19,3 C 15,9 C 26,6 C 26,6 C 10,3 C 90 % 92 % 1017,9 hPa 0,0 l/m 1,0 km/h (0 Bft) SO 135 5 min 14,7 C 26,6 C 1,9 km/h (1 Bft)
10.07.2021 09:25 16,3 C 19,3 C 16,0 C 26,8 C 26,8 C 10,5 C 90 % 92 % 1017,9 hPa 0,0 l/m 1,0 km/h (0 Bft) W-SW 247 5 min 14,7 C 26,8 C 1,8 km/h (1 Bft)
10.07.2021 09:30 16,5 C 19,3 C 16,0 C 26,4 C 26,4 C 9,9 C 90 % 92 % 1017,9 hPa 0,0 l/m 1,0 km/h (0 Bft) SW 225 5 min 14,9 C 26,4 C 1,9 km/h (1 Bft)
10.07.2021 09:35 16,4 C 19,3 C 16,1 C 24,3 C 24,3 C 7,9 C 89 % 92 % 1018,2 hPa 0,0 l/m 1,1 km/h (1 Bft) SW 225 5 min 14,6 C 24,3 C 1,8 km/h (1 Bft)
10.07.2021 09:40 16,4 C 19,3 C 16,2 C 23,0 C 23,0 C 6,6 C 89 % 92 % 1018,2 hPa 0,0 l/m 1,0 km/h (0 Bft) S 180 5 min 14,6 C 23,0 C 0,0 km/h (0 Bft)
10.07.2021 09:45 16,5 C 19,1 C 16,3 C 22,5 C 22,5 C 6,0 C 89 % 92 % 1018,2 hPa 0,0 l/m 1,1 km/h (1 Bft) SW 225 5 min 14,7 C 22,5 C 2,3 km/h (1 Bft)
10.07.2021 09:50 16,7 C 19,1 C 16,5 C 23,4 C 23,4 C 6,7 C 89 % 92 % 1018,2 hPa 0,0 l/m 1,1 km/h (1 Bft) S-SW 202 5 min 14,9 C 23,4 C 3,9 km/h (1 Bft)
10.07.2021 09:55 16,7 C 19,0 C 16,5 C 23,2 C 23,2 C 6,5 C 89 % 93 % 1018,1 hPa 0,0 l/m 1,0 km/h (0 Bft) S-SO 157 5 min 14,9 C 23,2 C 3,5 km/h (1 Bft)
10.07.2021 10:00 16,8 C 19,0 C 16,6 C 23,0 C 23,0 C 6,2 C 89 % 92 % 1018,1 hPa 0,0 l/m 1,0 km/h (0 Bft) SW 225 5 min 15,0 C 23,0 C 0,0 km/h (0 Bft)
10.07.2021 10:05 16,9 C 19,0 C 16,8 C 22,6 C 22,6 C 5,7 C 89 % 92 % 1018,1 hPa 0,0 l/m 0,8 km/h (0 Bft) S-SW 202 5 min 15,1 C 22,6 C 0,0 km/h (0 Bft)
10.07.2021 10:10 16,9 C 19,0 C 16,8 C 22,6 C 22,6 C 5,7 C 89 % 93 % 1018,1 hPa 0,0 l/m 0,6 km/h (0 Bft) SW 225 5 min 15,1 C 22,6 C 0,0 km/h (0 Bft)
10.07.2021 10:15 17,1 C 19,0 C 16,9 C 23,8 C 23,8 C 6,7 C 89 % 93 % 1018,2 hPa 0,0 l/m 0,3 km/h (0 Bft) O-SO 112 5 min 15,3 C 23,8 C 0,0 km/h (0 Bft)
10.07.2021 10:20 17,2 C 18,9 C 17,1 C 25,5 C 25,5 C 8,3 C 89 % 93 % 1018,2 hPa 0,0 l/m 0,3 km/h (0 Bft) W-SW 247 5 min 15,4 C 25,5 C 3,5 km/h (1 Bft)
10.07.2021 10:25 17,2 C 18,9 C 17,2 C 26,4 C 26,4 C 9,2 C 89 % 93 % 1018,2 hPa 0,0 l/m 0,5 km/h (0 Bft) W 270 5 min 15,4 C 26,4 C 0,0 km/h (0 Bft)
10.07.2021 10:30 17,3 C 18,9 C 17,2 C 25,7 C 25,7 C 8,4 C 88 % 92 % 1018,2 hPa 0,0 l/m 0,6 km/h (0 Bft) W-SW 247 5 min 15,3 C 25,7 C 0,0 km/h (0 Bft)
10.07.2021 10:35 17,3 C 18,9 C 17,5 C 26,1 C 26,1 C 8,8 C 88 % 92 % 1017,8 hPa 0,0 l/m 0,2 km/h (0 Bft) SW 225 5 min 15,3 C 26,1 C 0,0 km/h (0 Bft)
10.07.2021 10:40 17,3 C 18,9 C 17,6 C 27,0 C 27,0 C 9,7 C 88 % 92 % 1017,8 hPa 0,0 l/m 0,3 km/h (0 Bft) S-SW 202 5 min 15,3 C 27,0 C 0,0 km/h (0 Bft)
10.07.2021 10:45 17,5 C 18,8 C 17,7 C 27,6 C 27,6 C 10,1 C 88 % 93 % 1017,8 hPa 0,0 l/m 0,6 km/h (0 Bft) W-SW 247 5 min 15,5 C 27,6 C 1,8 km/h (1 Bft)
10.07.2021 10:50 17,5 C 18,8 C 17,7 C 27,2 C 27,2 C 9,7 C 88 % 93 % 1017,8 hPa 0,0 l/m 0,5 km/h (0 Bft) SW 225 5 min 15,5 C 27,2 C 0,0 km/h (0 Bft)
10.07.2021 10:55 17,6 C 18,7 C 17,9 C 27,4 C 27,4 C 9,8 C 88 % 93 % 1017,9 hPa 0,0 l/m 0,5 km/h (0 Bft) W-SW 247 5 min 15,6 C 27,4 C 0,0 km/h (0 Bft)
10.07.2021 11:00 17,6 C 18,7 C 18,1 C 28,5 C 28,5 C 10,9 C 87 % 93 % 1017,9 hPa 0,0 l/m 0,5 km/h (0 Bft) SO 135 5 min 15,4 C 28,5 C 0,0 km/h (0 Bft)
10.07.2021 11:05 17,9 C 18,7 C 18,3 C 28,5 C 28,5 C 10,6 C 87 % 93 % 1017,9 hPa 0,0 l/m 0,8 km/h (0 Bft) S 180 5 min 15,7 C 28,5 C 1,9 km/h (1 Bft)
10.07.2021 11:10 18,0 C 18,7 C 18,5 C 29,3 C 29,3 C 11,3 C 87 % 93 % 1017,9 hPa 0,0 l/m 0,8 km/h (0 Bft) S-SW 202 5 min 15,8 C 29,3 C 2,1 km/h (1 Bft)
10.07.2021 11:15 18,4 C 18,7 C 18,7 C 30,0 C 30,0 C 11,6 C 87 % 93 % 1018,0 hPa 0,0 l/m 0,8 km/h (0 Bft) W-SW 247 5 min 16,2 C 30,0 C 3,1 km/h (1 Bft)
10.07.2021 11:20 18,5 C 18,7 C 18,8 C 29,5 C 29,5 C 11,0 C 87 % 93 % 1018,0 hPa 0,0 l/m 0,6 km/h (0 Bft) S-SW 202 5 min 16,3 C 29,5 C 0,0 km/h (0 Bft)
10.07.2021 11:25 19,1 C 18,6 C 18,9 C 29,0 C 29,0 C 9,9 C 87 % 93 % 1018,0 hPa 0,0 l/m 0,8 km/h (0 Bft) SW 225 5 min 16,9 C 29,0 C 2,1 km/h (1 Bft)
10.07.2021 11:30 19,3 C 18,5 C 18,7 C 27,2 C 27,2 C 7,9 C 86 % 93 % 1018,0 hPa 0,0 l/m 1,3 km/h (1 Bft) S-SW 202 5 min 16,9 C 27,2 C 2,3 km/h (1 Bft)
10.07.2021 11:35 19,4 C 18,4 C 18,6 C 25,4 C 25,4 C 6,0 C 85 % 93 % 1018,0 hPa 0,0 l/m 1,6 km/h (1 Bft) S-SW 202 5 min 16,8 C 25,4 C 2,1 km/h (1 Bft)
10.07.2021 11:40 19,4 C 18,5 C 18,5 C 24,8 C 24,8 C 5,4 C 85 % 93 % 1018,0 hPa 0,0 l/m 1,1 km/h (1 Bft) SW 225 5 min 16,8 C 24,8 C 0,0 km/h (0 Bft)
10.07.2021 11:45 19,6 C 18,5 C 18,7 C 24,5 C 24,5 C 4,9 C 85 % 93 % 1018,0 hPa 0,0 l/m 0,2 km/h (0 Bft) W-NW 292 5 min 17,0 C 24,5 C 0,0 km/h (0 Bft)
10.07.2021 11:50 19,7 C 18,6 C 18,9 C 25,9 C 25,9 C 6,2 C 85 % 94 % 1018,0 hPa 0,0 l/m 0,3 km/h (0 Bft) SW 225 5 min 17,1 C 25,9 C 1,9 km/h (1 Bft)
10.07.2021 11:55 19,8 C 18,6 C 19,0 C 27,2 C 27,2 C 7,4 C 84 % 94 % 1017,1 hPa 0,0 l/m 0,5 km/h (0 Bft) S-SW 202 5 min 17,0 C 27,2 C 2,1 km/h (1 Bft)
10.07.2021 12:00 20,1 C 18,7 C 19,2 C 28,2 C 28,2 C 8,1 C 84 % 94 % 1017,1 hPa 0,0 l/m 0,5 km/h (0 Bft) SW 225 5 min 17,3 C 28,2 C 0,0 km/h (0 Bft)
10.07.2021 12:05 20,3 C 18,7 C 19,3 C 28,7 C 28,7 C 8,4 C 84 % 94 % 1017,1 hPa 0,0 l/m 0,5 km/h (0 Bft) SW 225 5 min 17,5 C 28,7 C 3,7 km/h (1 Bft)
10.07.2021 12:10 20,3 C 18,6 C 19,3 C 27,4 C 27,4 C 7,1 C 82 % 94 % 1017,1 hPa 0,0 l/m 0,5 km/h (0 Bft) SW 225 5 min 17,1 C 27,4 C 1,6 km/h (1 Bft)
10.07.2021 12:15 20,2 C 18,7 C 19,2 C 26,5 C 26,5 C 6,3 C 82 % 94 % 1017,6 hPa 0,0 l/m 0,8 km/h (0 Bft) SW 225 5 min 17,0 C 26,5 C 3,1 km/h (1 Bft)
10.07.2021 12:20 20,1 C 18,5 C 19,0 C 25,9 C 25,9 C 5,8 C 81 % 94 % 1017,6 hPa 0,0 l/m 0,8 km/h (0 Bft) SW 225 5 min 16,7 C 25,9 C 1,8 km/h (1 Bft)
10.07.2021 12:25 20,1 C 18,6 C 18,9 C 24,5 C 24,5 C 4,4 C 80 % 94 % 1017,6 hPa 0,0 l/m 0,6 km/h (0 Bft) SW 225 5 min 16,5 C 24,5 C 0,0 km/h (0 Bft)
10.07.2021 12:30 20,3 C 18,6 C 19,2 C 25,5 C 25,5 C 5,2 C 81 % 94 % 1017,6 hPa 0,0 l/m 0,2 km/h (0 Bft) W-NW 292 5 min 16,9 C 25,5 C 0,0 km/h (0 Bft)
10.07.2021 12:35 20,8 C 18,7 C 19,6 C 27,7 C 27,7 C 6,9 C 82 % 94 % 1017,4 hPa 0,0 l/m 0,3 km/h (0 Bft) O 90 5 min 17,6 C 27,7 C 0,0 km/h (0 Bft)
10.07.2021 12:40 21,5 C 18,7 C 19,9 C 28,7 C 28,7 C 7,2 C 80 % 94 % 1017,4 hPa 0,0 l/m 0,6 km/h (0 Bft) W-SW 247 5 min 17,9 C 28,7 C 0,0 km/h (0 Bft)
10.07.2021 12:45 22,1 C 18,6 C 20,1 C 29,6 C 29,6 C 7,5 C 77 % 93 % 1017,4 hPa 0,0 l/m 0,5 km/h (0 Bft) NO 45 5 min 17,9 C 29,6 C 0,0 km/h (0 Bft)
10.07.2021 12:50 22,2 C 18,7 C 20,1 C 28,6 C 28,6 C 6,4 C 75 % 94 % 1017,4 hPa 0,0 l/m 0,3 km/h (0 Bft) S-SW 202 5 min 17,5 C 28,6 C 0,0 km/h (0 Bft)
10.07.2021 12:55 22,3 C 18,6 C 20,4 C 28,7 C 28,7 C 6,4 C 74 % 94 % 1017,4 hPa 0,0 l/m 0,8 km/h (0 Bft) S 180 5 min 17,4 C 28,7 C 2,1 km/h (1 Bft)
10.07.2021 13:00 22,4 C 18,5 C 20,4 C 28,8 C 28,8 C 6,4 C 74 % 94 % 1017,4 hPa 0,0 l/m 0,8 km/h (0 Bft) W 270 5 min 17,5 C 28,8 C 1,6 km/h (1 Bft)
10.07.2021 13:05 22,4 C 18,5 C 20,5 C 28,8 C 28,8 C 6,4 C 74 % 94 % 1017,4 hPa 0,0 l/m 1,1 km/h (1 Bft) W-SW 247 5 min 17,5 C 28,8 C 1,9 km/h (1 Bft)
10.07.2021 13:10 22,7 C 18,3 C 20,6 C 28,8 C 28,8 C 6,1 C 72 % 94 % 1017,4 hPa 0,0 l/m 1,3 km/h (1 Bft) S-SO 157 5 min 17,4 C 28,8 C 2,7 km/h (1 Bft)
10.07.2021 13:15 22,6 C 18,3 C 20,5 C 28,6 C 28,6 C 6,0 C 70 % 93 % 1016,6 hPa 0,0 l/m 1,6 km/h (1 Bft) S 180 5 min 16,8 C 28,6 C 1,6 km/h (1 Bft)
10.07.2021 13:20 22,9 C 18,3 C 20,5 C 29,3 C 29,3 C 6,4 C 69 % 93 % 1016,6 hPa 0,0 l/m 1,4 km/h (1 Bft) S-SO 157 5 min 16,9 C 29,3 C 0,0 km/h (0 Bft)
10.07.2021 13:25 23,3 C 18,3 C 20,7 C 29,9 C 29,9 C 6,6 C 67 % 93 % 1016,6 hPa 0,0 l/m 1,3 km/h (1 Bft) W-SW 247 5 min 16,8 C 29,9 C 4,0 km/h (1 Bft)
10.07.2021 13:30 23,2 C 18,3 C 20,6 C 29,5 C 29,5 C 6,3 C 67 % 93 % 1016,6 hPa 0,0 l/m 1,4 km/h (1 Bft) SW 225 5 min 16,7 C 29,5 C 3,9 km/h (1 Bft)
10.07.2021 13:35 23,1 C 18,3 C 20,4 C 27,7 C 27,7 C 4,6 C 66 % 93 % 1017,1 hPa 0,0 l/m 1,0 km/h (0 Bft) SW 225 5 min 16,4 C 27,7 C 0,0 km/h (0 Bft)
10.07.2021 13:40 23,2 C 18,3 C 20,7 C 28,4 C 28,4 C 5,2 C 68 % 93 % 1017,1 hPa 0,0 l/m 1,1 km/h (1 Bft) N-NW 337 5 min 17,0 C 28,4 C 1,6 km/h (1 Bft)
10.07.2021 13:45 23,7 C 18,4 C 21,3 C 30,2 C 30,2 C 6,5 C 67 % 93 % 1017,1 hPa 0,0 l/m 1,3 km/h (1 Bft) S 180 5 min 17,2 C 30,2 C 1,9 km/h (1 Bft)
10.07.2021 13:50 24,2 C 18,4 C 21,3 C 31,1 C 31,1 C 6,9 C 67 % 93 % 1017,1 hPa 0,0 l/m 1,0 km/h (0 Bft) SW 225 5 min 17,7 C 31,1 C 1,9 km/h (1 Bft)
10.07.2021 13:55 24,0 C 18,3 C 21,0 C 29,5 C 29,5 C 5,5 C 64 % 93 % 1016,9 hPa 0,0 l/m 1,3 km/h (1 Bft) SW 225 5 min 16,8 C 29,5 C 4,2 km/h (1 Bft)
10.07.2021 14:00 23,6 C 18,3 C 20,8 C 28,2 C 28,2 C 4,6 C 65 % 93 % 1016,9 hPa 0,0 l/m 1,1 km/h (1 Bft) W-SW 247 5 min 16,6 C 28,2 C 0,0 km/h (0 Bft)
10.07.2021 14:05 23,2 C 18,3 C 20,6 C 27,2 C 27,2 C 4,0 C 65 % 93 % 1016,9 hPa 0,0 l/m 0,5 km/h (0 Bft) S 180 5 min 16,2 C 27,2 C 0,0 km/h (0 Bft)
10.07.2021 14:10 23,2 C 18,4 C 20,6 C 26,8 C 26,8 C 3,6 C 66 % 93 % 1016,9 hPa 0,0 l/m 0,2 km/h (0 Bft) O-SO 112 5 min 16,5 C 26,8 C 1,6 km/h (1 Bft)
10.07.2021 14:15 23,2 C 18,4 C 21,2 C 27,0 C 27,0 C 3,8 C 67 % 93 % 1016,5 hPa 0,0 l/m 0,6 km/h (0 Bft) S 180 5 min 16,7 C 27,0 C 0,0 km/h (0 Bft)
10.07.2021 14:20 23,6 C 18,4 C 21,5 C 28,8 C 28,8 C 5,2 C 68 % 93 % 1016,5 hPa 0,0 l/m 0,5 km/h (0 Bft) W 270 5 min 17,3 C 28,8 C 0,0 km/h (0 Bft)
10.07.2021 14:25 24,2 C 18,5 C 21,6 C 30,7 C 30,7 C 6,5 C 66 % 92 % 1016,5 hPa 0,0 l/m 0,2 km/h (0 Bft) N-NO 22 5 min 17,4 C 30,7 C 1,9 km/h (1 Bft)
10.07.2021 14:30 24,5 C 18,5 C 21,8 C 31,5 C 31,5 C 7,0 C 65 % 92 % 1016,5 hPa 0,0 l/m 0,2 km/h (0 Bft) S 180 5 min 17,5 C 31,5 C 1,6 km/h (1 Bft)
10.07.2021 14:35 25,1 C 18,5 C 22,0 C 32,6 C 32,6 C 7,5 C 63 % 91 % 1016,5 hPa 0,0 l/m 0,3 km/h (0 Bft) SW 225 5 min 17,5 C 32,6 C 0,0 km/h (0 Bft)
10.07.2021 14:40 25,4 C 18,5 C 21,8 C 32,7 C 32,7 C 7,3 C 60 % 89 % 1016,5 hPa 0,0 l/m 0,2 km/h (0 Bft) NW 315 5 min 17,1 C 32,7 C 0,0 km/h (0 Bft)
10.07.2021 14:45 24,9 C 18,5 C 21,7 C 30,9 C 30,9 C 6,0 C 60 % 91 % 1016,5 hPa 0,0 l/m 0,6 km/h (0 Bft) S 180 5 min 16,6 C 30,9 C 0,0 km/h (0 Bft)
10.07.2021 14:50 24,8 C 18,5 C 21,9 C 30,9 C 30,9 C 6,1 C 61 % 91 % 1016,5 hPa 0,0 l/m 0,5 km/h (0 Bft) SO 135 5 min 16,8 C 30,9 C 0,0 km/h (0 Bft)
10.07.2021 14:55 25,1 C 18,5 C 21,9 C 31,6 C 31,6 C 6,5 C 60 % 91 % 1016,6 hPa 0,0 l/m 0,2 km/h (0 Bft) SW 225 5 min 16,8 C 31,6 C 2,9 km/h (1 Bft)
10.07.2021 15:00 25,1 C 18,5 C 21,9 C 31,1 C 31,1 C 6,0 C 60 % 91 % 1016,6 hPa 0,0 l/m 0,5 km/h (0 Bft) W-SW 247 5 min 16,8 C 31,1 C 3,2 km/h (1 Bft)
10.07.2021 15:05 24,8 C 18,5 C 21,8 C 31,0 C 31,0 C 6,2 C 59 % 91 % 1016,6 hPa 0,0 l/m 1,0 km/h (0 Bft) SO 135 5 min 16,2 C 31,0 C 0,0 km/h (0 Bft)
10.07.2021 15:10 24,8 C 18,5 C 21,7 C 30,2 C 30,2 C 5,4 C 59 % 90 % 1016,6 hPa 0,0 l/m 1,0 km/h (0 Bft) W 270 5 min 16,2 C 30,2 C 0,0 km/h (0 Bft)
10.07.2021 15:15 24,9 C 18,6 C 21,7 C 30,2 C 30,2 C 5,3 C 60 % 90 % 1016,6 hPa 0,0 l/m 0,2 km/h (0 Bft) W 270 5 min 16,6 C 30,2 C 0,0 km/h (0 Bft)
10.07.2021 15:20 24,8 C 18,5 C 21,7 C 30,2 C 30,2 C 5,4 C 60 % 91 % 1016,6 hPa 0,0 l/m 0,2 km/h (0 Bft) S 180 5 min 16,5 C 30,2 C 2,1 km/h (1 Bft)
10.07.2021 15:25 24,5 C 18,6 C 21,5 C 29,6 C 29,6 C 5,1 C 59 % 89 % 1016,6 hPa 0,0 l/m 0,5 km/h (0 Bft) W-NW 292 5 min 15,9 C 29,6 C 0,0 km/h (0 Bft)
10.07.2021 15:30 24,5 C 18,6 C 21,6 C 29,1 C 29,1 C 4,6 C 59 % 89 % 1016,6 hPa 0,0 l/m 0,5 km/h (0 Bft) O 90 5 min 15,9 C 29,1 C 0,0 km/h (0 Bft)
10.07.2021 15:35 24,5 C 18,6 C 21,7 C 29,9 C 29,9 C 5,4 C 60 % 90 % 1016,3 hPa 0,0 l/m 0,2 km/h (0 Bft) SW 225 5 min 16,2 C 29,9 C 0,0 km/h (0 Bft)
10.07.2021 15:40 24,4 C 18,6 C 21,8 C 30,5 C 30,5 C 6,1 C 59 % 90 % 1016,3 hPa 0,0 l/m 0,5 km/h (0 Bft) S 180 5 min 15,9 C 30,5 C 0,0 km/h (0 Bft)
10.07.2021 15:45 24,3 C 18,6 C 21,9 C 30,9 C 30,9 C 6,6 C 60 % 90 % 1016,3 hPa 0,0 l/m 0,8 km/h (0 Bft) W 270 5 min 16,0 C 30,9 C 0,0 km/h (0 Bft)
10.07.2021 15:50 24,3 C 18,7 C 21,9 C 31,7 C 31,7 C 7,4 C 59 % 87 % 1016,3 hPa 0,0 l/m 0,5 km/h (0 Bft) SO 135 5 min 15,8 C 31,7 C 2,9 km/h (1 Bft)
10.07.2021 15:55 24,3 C 18,7 C 22,0 C 32,1 C 32,1 C 7,8 C 59 % 88 % 1015,9 hPa 0,0 l/m 0,5 km/h (0 Bft) W 270 5 min 15,8 C 32,1 C 0,0 km/h (0 Bft)
10.07.2021 16:00 24,3 C 18,7 C 22,1 C 32,4 C 32,4 C 8,1 C 59 % 86 % 1015,9 hPa 0,0 l/m 0,6 km/h (0 Bft) S 180 5 min 15,8 C 32,4 C 0,0 km/h (0 Bft)
10.07.2021 16:05 24,4 C 18,7 C 22,0 C 32,6 C 32,6 C 8,2 C 60 % 88 % 1015,9 hPa 0,0 l/m 0,3 km/h (0 Bft) S 180 5 min 16,1 C 32,6 C 0,0 km/h (0 Bft)
10.07.2021 16:10 24,5 C 18,7 C 21,8 C 31,6 C 31,6 C 7,1 C 60 % 88 % 1015,9 hPa 0,0 l/m 0,3 km/h (0 Bft) S 180 5 min 16,2 C 31,6 C 2,9 km/h (1 Bft)
10.07.2021 16:15 24,4 C 18,7 C 22,0 C 31,0 C 31,0 C 6,6 C 59 % 88 % 1016,0 hPa 0,0 l/m 0,6 km/h (0 Bft) SW 225 5 min 15,9 C 31,0 C 2,4 km/h (1 Bft)
10.07.2021 16:20 24,3 C 18,7 C 22,3 C 31,5 C 31,5 C 7,2 C 59 % 86 % 1016,0 hPa 0,0 l/m 1,0 km/h (0 Bft) O 90 5 min 15,8 C 31,5 C 0,0 km/h (0 Bft)
10.07.2021 16:25 24,4 C 18,8 C 22,4 C 32,3 C 32,3 C 7,9 C 58 % 85 % 1016,0 hPa 0,0 l/m 0,6 km/h (0 Bft) NO 45 5 min 15,6 C 32,3 C 0,0 km/h (0 Bft)
10.07.2021 16:30 24,5 C 18,8 C 22,5 C 32,6 C 32,6 C 8,1 C 59 % 86 % 1016,0 hPa 0,0 l/m 0,5 km/h (0 Bft) SW 225 5 min 15,9 C 32,6 C 0,0 km/h (0 Bft)
10.07.2021 16:35 24,6 C 18,8 C 22,7 C 33,0 C 33,0 C 8,4 C 60 % 86 % 1016,2 hPa 0,0 l/m 0,8 km/h (0 Bft) S 180 5 min 16,3 C 33,0 C 0,0 km/h (0 Bft)
10.07.2021 16:40 24,8 C 18,8 C 22,7 C 33,1 C 33,1 C 8,3 C 60 % 86 % 1016,2 hPa 0,0 l/m 0,5 km/h (0 Bft) W 270 5 min 16,5 C 33,1 C 0,0 km/h (0 Bft)
10.07.2021 16:45 24,8 C 18,8 C 22,8 C 33,5 C 33,5 C 8,7 C 59 % 85 % 1016,2 hPa 0,0 l/m 0,6 km/h (0 Bft) S-SO 157 5 min 16,2 C 33,5 C 0,0 km/h (0 Bft)
10.07.2021 16:50 24,8 C 18,8 C 22,7 C 33,1 C 33,1 C 8,3 C 59 % 83 % 1016,2 hPa 0,0 l/m 1,0 km/h (0 Bft) SW 225 5 min 16,2 C 33,1 C 4,2 km/h (1 Bft)
10.07.2021 16:55 24,7 C 18,8 C 22,8 C 32,9 C 32,9 C 8,2 C 59 % 85 % 1015,6 hPa 0,0 l/m 1,0 km/h (0 Bft) W 270 5 min 16,1 C 32,9 C 0,0 km/h (0 Bft)
10.07.2021 17:00 24,9 C 18,9 C 22,8 C 33,4 C 33,4 C 8,5 C 59 % 84 % 1015,6 hPa 0,0 l/m 0,6 km/h (0 Bft) W 270 5 min 16,3 C 33,4 C 0,0 km/h (0 Bft)
10.07.2021 17:05 25,0 C 18,8 C 22,7 C 33,6 C 33,6 C 8,6 C 58 % 83 % 1015,6 hPa 0,0 l/m 0,2 km/h (0 Bft) W 270 5 min 16,1 C 33,6 C 0,0 km/h (0 Bft)
10.07.2021 17:10 24,9 C 18,9 C 22,5 C 32,7 C 32,7 C 7,8 C 57 % 80 % 1015,6 hPa 0,0 l/m 0,5 km/h (0 Bft) O-SO 112 5 min 15,8 C 32,7 C 2,9 km/h (1 Bft)
10.07.2021 17:15 24,6 C 18,9 C 22,4 C 30,3 C 30,3 C 5,7 C 58 % 81 % 1015,3 hPa 0,0 l/m 1,9 km/h (1 Bft) O-NO 67 5 min 15,8 C 30,3 C 3,4 km/h (1 Bft)
10.07.2021 17:20 24,3 C 18,9 C 22,3 C 28,9 C 28,9 C 4,6 C 58 % 78 % 1015,3 hPa 0,0 l/m 3,1 km/h (1 Bft) NO 45 5 min 15,5 C 28,9 C 3,5 km/h (1 Bft)
10.07.2021 17:25 24,2 C 18,9 C 22,3 C 27,8 C 27,8 C 3,6 C 59 % 79 % 1015,3 hPa 0,0 l/m 2,9 km/h (1 Bft) O-NO 67 5 min 15,7 C 27,8 C 0,0 km/h (0 Bft)
10.07.2021 17:30 24,2 C 19,0 C 22,2 C 27,3 C 27,3 C 3,1 C 61 % 79 % 1015,3 hPa 0,0 l/m 1,6 km/h (1 Bft) O-SO 112 0 min 16,2 C 27,3 C 0,0 km/h (0 Bft)
10.07.2021 17:35 24,1 C 19,0 C 22,1 C 26,9 C 26,9 C 2,8 C 60 % 79 % 1015,7 hPa 0,0 l/m 0,8 km/h (0 Bft) O-NO 67 0 min 15,8 C 26,9 C 2,3 km/h (1 Bft)
10.07.2021 17:40 24,0 C 19,0 C 22,1 C 26,5 C 26,5 C 2,5 C 60 % 78 % 1015,7 hPa 0,0 l/m 1,1 km/h (1 Bft) O-SO 112 0 min 15,7 C 26,5 C 3,7 km/h (1 Bft)
10.07.2021 17:45 23,8 C 19,0 C 21,9 C 25,9 C 25,9 C 2,1 C 62 % 79 % 1015,7 hPa 0,0 l/m 1,4 km/h (1 Bft) O-NO 67 0 min 16,1 C 25,9 C 0,0 km/h (0 Bft)
10.07.2021 17:50 23,8 C 19,0 C 21,8 C 25,6 C 25,6 C 1,8 C 63 % 79 % 1015,7 hPa 0,0 l/m 1,1 km/h (1 Bft) O-NO 67 0 min 16,3 C 25,6 C 0,0 km/h (0 Bft)
10.07.2021 17:55 23,8 C 19,0 C 21,7 C 25,3 C 25,3 C 1,5 C 64 % 81 % 1015,5 hPa 0,0 l/m 0,0 km/h (0 Bft) O-NO 67 0 min 16,6 C 25,3 C 0,0 km/h (0 Bft)
10.07.2021 18:00 23,7 C 19,1 C 21,5 C 25,1 C 25,1 C 1,4 C 64 % 82 % 1015,5 hPa 0,0 l/m 0,3 km/h (0 Bft) NO 45 0 min 16,5 C 25,1 C 0,0 km/h (0 Bft)
10.07.2021 18:05 23,5 C 19,1 C 21,5 C 24,8 C 24,8 C 1,3 C 65 % 81 % 1015,5 hPa 0,0 l/m 1,4 km/h (1 Bft) O-NO 67 0 min 16,5 C 24,8 C 3,4 km/h (1 Bft)
10.07.2021 18:10 23,5 C 19,1 C 21,5 C 24,7 C 24,7 C 1,2 C 65 % 81 % 1015,5 hPa 0,0 l/m 1,8 km/h (1 Bft) O-NO 67 0 min 16,5 C 24,7 C 0,0 km/h (0 Bft)
10.07.2021 18:15 23,3 C 19,1 C 21,5 C 24,5 C 24,5 C 1,2 C 66 % 81 % 1015,1 hPa 0,0 l/m 1,8 km/h (1 Bft) O-NO 67 0 min 16,6 C 24,5 C 1,9 km/h (1 Bft)
10.07.2021 18:20 23,3 C 19,1 C 21,5 C 24,5 C 24,5 C 1,2 C 66 % 81 % 1015,1 hPa 0,0 l/m 1,3 km/h (1 Bft) NO 45 0 min 16,6 C 24,5 C 2,9 km/h (1 Bft)
10.07.2021 18:25 23,3 C 19,1 C 21,8 C 25,6 C 25,6 C 2,3 C 66 % 81 % 1015,1 hPa 0,0 l/m 2,1 km/h (1 Bft) O-NO 67 0 min 16,6 C 25,6 C 3,7 km/h (1 Bft)
10.07.2021 18:30 23,5 C 19,1 C 21,9 C 26,3 C 26,3 C 2,8 C 65 % 80 % 1015,1 hPa 0,0 l/m 3,1 km/h (1 Bft) O-NO 67 0 min 16,5 C 26,3 C 3,1 km/h (1 Bft)
10.07.2021 18:35 23,6 C 19,2 C 22,0 C 27,0 C 27,0 C 3,4 C 65 % 79 % 1014,9 hPa 0,0 l/m 2,9 km/h (1 Bft) O-NO 67 5 min 16,6 C 27,0 C 4,2 km/h (1 Bft)
10.07.2021 18:40 23,7 C 19,2 C 22,2 C 27,4 C 27,4 C 3,7 C 63 % 74 % 1014,9 hPa 0,0 l/m 3,2 km/h (1 Bft) O-NO 67 5 min 16,2 C 27,4 C 5,1 km/h (1 Bft)
10.07.2021 18:45 23,6 C 19,2 C 22,1 C 27,2 C 27,2 C 3,6 C 62 % 76 % 1014,9 hPa 0,0 l/m 4,2 km/h (1 Bft) O-NO 67 5 min 15,9 C 27,2 C 10,0 km/h (2 Bft)
10.07.2021 18:50 23,7 C 19,2 C 22,1 C 26,6 C 26,6 C 2,9 C 61 % 77 % 1014,9 hPa 0,0 l/m 4,3 km/h (1 Bft) O-NO 67 0 min 15,7 C 26,6 C 3,5 km/h (1 Bft)
10.07.2021 18:55 23,6 C 19,2 C 22,0 C 26,7 C 26,7 C 3,1 C 62 % 76 % 1014,9 hPa 0,0 l/m 3,4 km/h (1 Bft) O-NO 67 0 min 15,9 C 26,7 C 3,7 km/h (1 Bft)
10.07.2021 19:00 23,7 C 19,2 C 22,1 C 27,0 C 27,0 C 3,3 C 62 % 76 % 1014,9 hPa 0,0 l/m 3,4 km/h (1 Bft) NO 45 5 min 16,0 C 27,0 C 7,4 km/h (2 Bft)
10.07.2021 19:05 23,7 C 19,2 C 22,0 C 26,6 C 26,6 C 2,9 C 61 % 76 % 1014,9 hPa 0,0 l/m 4,7 km/h (1 Bft) NO 45 0 min 15,7 C 26,6 C 5,8 km/h (2 Bft)
10.07.2021 19:10 23,7 C 19,2 C 22,0 C 26,1 C 26,1 C 2,4 C 62 % 76 % 1014,9 hPa 0,0 l/m 4,7 km/h (1 Bft) O-NO 67 0 min 16,0 C 26,1 C 5,3 km/h (1 Bft)
10.07.2021 19:15 23,7 C 19,3 C 22,0 C 25,5 C 25,5 C 1,8 C 62 % 76 % 1014,9 hPa 0,0 l/m 4,2 km/h (1 Bft) O-NO 67 0 min 16,0 C 25,5 C 2,4 km/h (1 Bft)
10.07.2021 19:20 23,6 C 19,3 C 21,9 C 25,1 C 25,1 C 1,5 C 62 % 77 % 1014,9 hPa 0,0 l/m 4,0 km/h (1 Bft) O-NO 67 0 min 15,9 C 25,1 C 3,5 km/h (1 Bft)
10.07.2021 19:25 23,5 C 19,3 C 21,8 C 25,2 C 25,2 C 1,7 C 62 % 77 % 1014,9 hPa 0,0 l/m 3,9 km/h (1 Bft) NO 45 0 min 15,8 C 25,2 C 7,2 km/h (2 Bft)
10.07.2021 19:30 23,5 C 19,3 C 21,6 C 25,4 C 25,4 C 1,9 C 62 % 77 % 1014,9 hPa 0,0 l/m 4,0 km/h (1 Bft) O-NO 67 0 min 15,8 C 25,4 C 5,5 km/h (1 Bft)
10.07.2021 19:35 23,4 C 19,4 C 21,5 C 25,9 C 25,9 C 2,5 C 62 % 77 % 1014,8 hPa 0,0 l/m 4,0 km/h (1 Bft) O-NO 67 5 min 15,7 C 25,9 C 2,7 km/h (1 Bft)
10.07.2021 19:40 23,3 C 19,4 C 21,5 C 26,2 C 26,2 C 2,9 C 62 % 78 % 1014,8 hPa 0,0 l/m 3,7 km/h (1 Bft) O-NO 67 5 min 15,6 C 26,2 C 3,9 km/h (1 Bft)
10.07.2021 19:45 23,2 C 19,4 C 21,4 C 26,5 C 26,5 C 3,3 C 63 % 78 % 1014,8 hPa 0,0 l/m 3,4 km/h (1 Bft) O-NO 67 5 min 15,8 C 26,5 C 4,2 km/h (1 Bft)
10.07.2021 19:50 23,2 C 19,4 C 21,4 C 26,5 C 26,5 C 3,3 C 63 % 78 % 1014,8 hPa 0,0 l/m 3,1 km/h (1 Bft) O-NO 67 5 min 15,8 C 26,5 C 1,8 km/h (1 Bft)
10.07.2021 19:55 23,2 C 19,4 C 21,3 C 26,0 C 26,0 C 2,8 C 65 % 79 % 1014,8 hPa 0,0 l/m 1,4 km/h (1 Bft) O-NO 67 5 min 16,2 C 26,0 C 0,0 km/h (0 Bft)
10.07.2021 20:00 23,1 C 19,4 C 21,3 C 26,0 C 26,0 C 2,9 C 65 % 80 % 1014,8 hPa 0,0 l/m 1,0 km/h (0 Bft) O-NO 67 5 min 16,2 C 26,0 C 2,9 km/h (1 Bft)
10.07.2021 20:05 23,0 C 19,5 C 21,1 C 26,1 C 26,1 C 3,1 C 66 % 81 % 1014,8 hPa 0,0 l/m 0,8 km/h (0 Bft) O-NO 67 5 min 16,3 C 26,1 C 1,6 km/h (1 Bft)
10.07.2021 20:10 22,8 C 19,5 C 21,0 C 26,0 C 26,0 C 3,2 C 66 % 81 % 1014,8 hPa 0,0 l/m 1,0 km/h (0 Bft) O-NO 67 5 min 16,1 C 26,0 C 2,1 km/h (1 Bft)
10.07.2021 20:15 22,7 C 19,5 C 20,9 C 25,9 C 25,9 C 3,2 C 67 % 82 % 1015,0 hPa 0,0 l/m 1,4 km/h (1 Bft) O-NO 67 5 min 16,2 C 25,9 C 1,8 km/h (1 Bft)
10.07.2021 20:20 22,6 C 19,5 C 20,8 C 25,7 C 25,7 C 3,1 C 67 % 81 % 1015,0 hPa 0,0 l/m 2,1 km/h (1 Bft) O-NO 67 5 min 16,2 C 25,7 C 3,1 km/h (1 Bft)
10.07.2021 20:25 22,4 C 19,5 C 20,7 C 24,9 C 24,9 C 2,5 C 68 % 81 % 1015,0 hPa 0,0 l/m 2,9 km/h (1 Bft) O-NO 67 5 min 16,2 C 24,9 C 3,4 km/h (1 Bft)
10.07.2021 20:30 22,3 C 19,5 C 20,5 C 24,2 C 24,2 C 1,9 C 68 % 81 % 1015,0 hPa 0,0 l/m 3,1 km/h (1 Bft) O-NO 67 5 min 16,1 C 24,2 C 3,5 km/h (1 Bft)
10.07.2021 20:35 22,1 C 19,5 C 20,3 C 23,3 C 23,3 C 1,2 C 69 % 81 % 1014,8 hPa 0,0 l/m 2,9 km/h (1 Bft) O-NO 67 5 min 16,1 C 23,3 C 2,1 km/h (1 Bft)
10.07.2021 20:40 21,9 C 19,5 C 20,1 C 22,5 C 22,5 C 0,6 C 69 % 82 % 1014,8 hPa 0,0 l/m 1,8 km/h (1 Bft) O-NO 67 0 min 15,9 C 22,5 C 0,0 km/h (0 Bft)
10.07.2021 20:45 21,6 C 19,5 C 19,7 C 21,7 C 21,7 C 0,1 C 70 % 83 % 1014,8 hPa 0,0 l/m 0,8 km/h (0 Bft) O-NO 67 0 min 15,9 C 21,7 C 0,0 km/h (0 Bft)
10.07.2021 20:50 21,5 C 19,5 C 19,6 C 21,4 C 21,2 C 0,0 C 71 % 83 % 1014,8 hPa 0,0 l/m 0,8 km/h (0 Bft) NO 45 0 min 16,0 C 21,2 C 2,1 km/h (1 Bft)
10.07.2021 20:55 21,3 C 19,5 C 19,5 C 21,1 C 20,8 C 0,0 C 72 % 83 % 1014,7 hPa 0,0 l/m 0,6 km/h (0 Bft) NO 45 0 min 16,0 C 20,8 C 0,0 km/h (0 Bft)
10.07.2021 21:00 21,0 C 19,6 C 19,3 C 20,8 C 20,5 C 0,0 C 72 % 84 % 1014,7 hPa 0,0 l/m 0,5 km/h (0 Bft) NO 45 0 min 15,8 C 20,5 C 0,0 km/h (0 Bft)
10.07.2021 21:05 20,9 C 19,7 C 19,1 C 20,6 C 20,0 C 0,0 C 72 % 85 % 1014,7 hPa 0,0 l/m 0,0 km/h (0 Bft) NO 45 0 min 15,7 C 20,0 C 0,0 km/h (0 Bft)
10.07.2021 21:10 20,7 C 19,6 C 19,1 C 20,4 C 19,7 C 0,0 C 73 % 85 % 1014,7 hPa 0,0 l/m 0,0 km/h (0 Bft) NO 45 0 min 15,7 C 19,7 C 0,0 km/h (0 Bft)
10.07.2021 21:15 20,4 C 19,7 C 18,9 C 20,0 C 19,2 C 0,0 C 73 % 84 % 1014,6 hPa 0,0 l/m 0,0 km/h (0 Bft) NO 45 0 min 15,4 C 19,2 C 0,0 km/h (0 Bft)
10.07.2021 21:20 20,3 C 19,7 C 18,7 C 19,8 C 18,9 C 0,0 C 73 % 84 % 1014,6 hPa 0,0 l/m 0,0 km/h (0 Bft) NO 45 0 min 15,3 C 18,9 C 0,0 km/h (0 Bft)
10.07.2021 21:25 20,1 C 19,7 C 18,6 C 19,5 C 18,4 C 0,0 C 74 % 86 % 1014,6 hPa 0,0 l/m 0,0 km/h (0 Bft) NO 45 0 min 15,3 C 18,4 C 0,0 km/h (0 Bft)
10.07.2021 21:30 20,0 C 19,8 C 18,5 C 19,4 C 18,2 C 0,0 C 74 % 86 % 1014,6 hPa 0,0 l/m 0,0 km/h (0 Bft) NO 45 0 min 15,2 C 18,2 C 0,0 km/h (0 Bft)
10.07.2021 21:35 19,7 C 19,8 C 18,3 C 19,1 C 17,9 C 0,0 C 75 % 86 % 1014,6 hPa 0,0 l/m 0,0 km/h (0 Bft) NO 45 0 min 15,1 C 17,9 C 0,0 km/h (0 Bft)
10.07.2021 21:40 19,6 C 19,8 C 18,1 C 19,0 C 17,8 C 0,0 C 75 % 87 % 1014,6 hPa 0,0 l/m 0,0 km/h (0 Bft) NO 45 0 min 15,0 C 17,8 C 0,0 km/h (0 Bft)
10.07.2021 21:45 19,5 C 19,9 C 17,9 C 18,9 C 17,6 C 0,0 C 76 % 87 % 1014,6 hPa 0,0 l/m 0,0 km/h (0 Bft) NO 45 0 min 15,2 C 17,6 C 0,0 km/h (0 Bft)
10.07.2021 21:50 19,3 C 19,9 C 17,8 C 18,7 C 17,5 C 0,0 C 77 % 87 % 1014,6 hPa 0,0 l/m 0,0 km/h (0 Bft) NO 45 0 min 15,2 C 17,5 C 0,0 km/h (0 Bft)
10.07.2021 21:55 19,1 C 19,9 C 17,7 C 18,5 C 17,3 C 0,0 C 78 % 87 % 1014,1 hPa 0,0 l/m 0,0 km/h (0 Bft) NO 45 0 min 15,2 C 17,3 C 0,0 km/h (0 Bft)
10.07.2021 22:00 18,9 C 19,9 C 17,5 C 18,3 C 17,1 C 0,0 C 78 % 88 % 1014,1 hPa 0,0 l/m 0,0 km/h (0 Bft) NO 45 0 min 15,0 C 17,1 C 0,0 km/h (0 Bft)
10.07.2021 22:05 18,7 C 19,9 C 17,4 C 18,1 C 17,0 C 0,0 C 79 % 88 % 1014,1 hPa 0,0 l/m 0,0 km/h (0 Bft) NO 45 0 min 15,0 C 17,0 C 0,0 km/h (0 Bft)
10.07.2021 22:10 18,5 C 19,9 C 17,3 C 17,9 C 16,8 C 0,0 C 79 % 88 % 1014,1 hPa 0,0 l/m 0,0 km/h (0 Bft) NO 45 0 min 14,8 C 16,8 C 0,0 km/h (0 Bft)
10.07.2021 22:15 18,3 C 20,0 C 17,2 C 17,7 C 16,6 C 0,0 C 79 % 89 % 1014,8 hPa 0,0 l/m 0,0 km/h (0 Bft) NO 45 0 min 14,6 C 16,6 C 0,0 km/h (0 Bft)
10.07.2021 22:20 18,3 C 20,0 C 17,2 C 17,7 C 16,5 C 0,0 C 79 % 89 % 1014,8 hPa 0,0 l/m 0,0 km/h (0 Bft) NO 45 0 min 14,6 C 16,5 C 0,0 km/h (0 Bft)
10.07.2021 22:25 18,1 C 20,0 C 17,1 C 17,5 C 16,3 C 0,0 C 80 % 89 % 1014,8 hPa 0,0 l/m 0,0 km/h (0 Bft) NO 45 0 min 14,6 C 16,3 C 0,0 km/h (0 Bft)
10.07.2021 22:30 18,0 C 20,0 C 16,9 C 17,4 C 16,2 C 0,0 C 80 % 89 % 1014,8 hPa 0,0 l/m 0,0 km/h (0 Bft) NO 45 0 min 14,5 C 16,2 C 0,0 km/h (0 Bft)
10.07.2021 22:35 17,8 C 20,0 C 16,8 C 17,2 C 16,1 C 0,0 C 81 % 90 % 1014,5 hPa 0,0 l/m 0,0 km/h (0 Bft) NO 45 0 min 14,5 C 16,1 C 0,0 km/h (0 Bft)
10.07.2021 22:40 17,8 C 20,0 C 16,8 C 17,2 C 16,1 C 0,0 C 81 % 90 % 1014,5 hPa 0,0 l/m 0,0 km/h (0 Bft) NO 45 0 min 14,5 C 16,1 C 0,0 km/h (0 Bft)
10.07.2021 22:45 17,7 C 20,0 C 16,7 C 17,1 C 15,9 C 0,0 C 81 % 90 % 1014,5 hPa 0,0 l/m 0,0 km/h (0 Bft) NO 45 0 min 14,4 C 15,9 C 0,0 km/h (0 Bft)
10.07.2021 22:50 17,6 C 20,1 C 16,6 C 17,0 C 15,9 C 0,0 C 82 % 90 % 1014,5 hPa 0,0 l/m 0,0 km/h (0 Bft) NO 45 0 min 14,5 C 15,9 C 0,0 km/h (0 Bft)
10.07.2021 22:55 17,4 C 20,1 C 16,5 C 16,9 C 15,9 C 0,0 C 82 % 91 % 1014,8 hPa 0,0 l/m 0,0 km/h (0 Bft) NO 45 0 min 14,3 C 15,9 C 0,0 km/h (0 Bft)
10.07.2021 23:00 17,4 C 20,1 C 16,5 C 16,9 C 15,8 C 0,0 C 82 % 91 % 1014,8 hPa 0,0 l/m 0,0 km/h (0 Bft) NO 45 0 min 14,3 C 15,8 C 0,0 km/h (0 Bft)
10.07.2021 23:05 17,2 C 20,1 C 16,4 C 16,7 C 15,6 C 0,0 C 82 % 91 % 1014,8 hPa 0,0 l/m 0,0 km/h (0 Bft) NO 45 0 min 14,1 C 15,6 C 0,0 km/h (0 Bft)
10.07.2021 23:10 17,3 C 20,1 C 16,3 C 16,7 C 15,5 C 0,0 C 83 % 91 % 1014,8 hPa 0,0 l/m 0,0 km/h (0 Bft) NO 45 0 min 14,4 C 15,5 C 0,0 km/h (0 Bft)
10.07.2021 23:15 17,0 C 20,1 C 16,2 C 16,5 C 15,5 C 0,0 C 83 % 91 % 1014,7 hPa 0,0 l/m 0,0 km/h (0 Bft) NO 45 0 min 14,1 C 15,5 C 0,0 km/h (0 Bft)
10.07.2021 23:20 17,1 C 20,1 C 16,1 C 16,6 C 15,5 C 0,0 C 83 % 91 % 1014,7 hPa 0,0 l/m 0,0 km/h (0 Bft) NO 45 0 min 14,2 C 15,5 C 0,0 km/h (0 Bft)
10.07.2021 23:25 16,9 C 20,1 C 16,0 C 16,4 C 15,4 C 0,0 C 83 % 91 % 1014,7 hPa 0,0 l/m 0,0 km/h (0 Bft) NO 45 0 min 14,0 C 15,4 C 0,0 km/h (0 Bft)
10.07.2021 23:30 16,9 C 20,1 C 16,0 C 16,4 C 15,3 C 0,0 C 83 % 91 % 1014,7 hPa 0,0 l/m 0,0 km/h (0 Bft) NO 45 0 min 14,0 C 15,3 C 0,0 km/h (0 Bft)
10.07.2021 23:35 16,7 C 20,1 C 15,9 C 16,2 C 15,2 C 0,0 C 84 % 91 % 1014,6 hPa 0,0 l/m 0,0 km/h (0 Bft) NO 45 0 min 14,0 C 15,2 C 0,0 km/h (0 Bft)
10.07.2021 23:40 16,6 C 20,0 C 15,9 C 16,1 C 15,1 C 0,0 C 84 % 91 % 1014,6 hPa 0,0 l/m 0,0 km/h (0 Bft) NO 45 0 min 13,9 C 15,1 C 0,0 km/h (0 Bft)
10.07.2021 23:45 16,5 C 20,1 C 15,8 C 16,0 C 15,0 C 0,0 C 84 % 91 % 1014,6 hPa 0,0 l/m 0,0 km/h (0 Bft) NO 45 0 min 13,8 C 15,0 C 0,0 km/h (0 Bft)
10.07.2021 23:50 16,4 C 20,0 C 15,7 C 15,9 C 15,0 C 0,0 C 84 % 92 % 1014,6 hPa 0,0 l/m 0,0 km/h (0 Bft) NO 45 0 min 13,7 C 15,0 C 0,0 km/h (0 Bft)
10.07.2021 23:55 16,4 C 20,0 C 15,6 C 15,9 C 15,0 C 0,0 C 85 % 92 % 1014,4 hPa 0,0 l/m 0,0 km/h (0 Bft) NO 45 0 min 13,9 C 15,0 C 0,0 km/h (0 Bft)
_ Min-Zeit 04:55 13:10 04:50 04:55 04:55 20:50 17:10 18:40 21:55 - 00:15 - - - 04:55 04:55 00:05
Minimum _ 12,1 C 18,3 C 13,0 C 12,7 C 12,7 C 0,0 C 57 % 74 % 1014,1 hPa - 0,0 km/h (0 Bft) - - - 10,3 C 12,7 C 0,0 km/h (0 Bft)
_ Max-Zeit 14:40 22:50 16:45 17:05 17:05 11:15 07:25 11:50 00:55 01:40 19:05 - - 05:20 12:40 17:05 18:45
Maximum _ 25,4 C 20,1 C 22,8 C 33,6 C 33,6 C 11,6 C 90 % 94 % 1018,6 hPa 0,7 l/m 4,7 km/h
NO (1 Bft)
- - 5 min 17,9 C 33,6 C 10,0 km/h
O-NO (2 Bft)
Durchschnitt _ 18,1 C 19,2 C 17,4 C 21,8 C 21,7 C 3,8 C 79 % 89 % 1016,7 hPa #1,4 l/m 0,7 km/h (0 Bft) O-NO - #11:55 h 14,1 C 21,7 C 1,0 km/h (0 Bft)
2021 www.wetterstation-wechselburg.de